Weather History for Miles City, MT

Change the Weather History Date:

Tuesday, August 6, 2013

  Actual Average Record
Temperature  
Mean Temperature 71 °F 75 °F  
Max Temperature 83 °F 90 °F 107 °F (1949)
Min Temperature 58 °F 61 °F 48 °F (1959)
Degree Days  
Heating Degree Days 0 0  
Month to date heating degree days 0 0  
Since 1 June heating degree days 59 101  
Since 1 July heating degree days 0 12  
Cooling Degree Days 6 10  
Month to date cooling degree days 39 64  
Year to date cooling degree days 464 479  
Since 1 June cooling degree days 451 459  
Growing Degree Days 20 (Base 50)    
Moisture  
Dew Point 52 °F    
Average Humidity 58    
Maximum Humidity 87    
Minimum Humidity 28    
Precipitation  
Precipitation 0.00 in 0.04 in 0.70 in (2009)
Month to date precipitation 0.90 0.23  
Year to date precipitation 13.02 9.08  
Sea Level Pressure  
Sea Level Pressure 29.91 in    
Wind  
Wind Speed 10 mph (NW)    
Max Wind Speed 22 mph    
Max Gust Speed 28 mph    
Visibility 10 miles    
Events      
T = Trace of Precipitation, MM = Missing Value Source: NWS Daily Summary

Daily Weather History Graph

Daily Weather History Graph

Search for Another Location

Airport:

Trip Planner

Search our weather history database for the weather conditions in past years. The results will help you decide how hot, cold, wet, or windy it might be!

Date:

Astronomy

Aug. 06, 2013 Rise Set
Actual Time 5:51 AM MDT 8:26 PM MDT
Civil Twilight 5:16 AM MDT 9:00 PM MDT
Nautical Twilight 4:33 AM MDT 9:43 PM MDT
Astronomical Twilight 3:43 AM MDT 10:32 PM MDT
Moon 5:48 AM MDT (8/6) 7:57 PM MDT (8/6)
Length of Visible Light 15h 43m
Length of Day
14h 35m
Waning Crescent, 0% of the Moon is Illuminated
Aug 6
Waning Crescent
Aug 6
New
Aug 14
First Quarter
Aug 20
Full
Aug 28
Last Quarter

Hourly Weather History & Observations

Time (MDT) Temp. Dew Point Humidity Pressure Visibility Wind Dir Wind Speed Gust Speed Precip Events Conditions
12:53 AM 64.0 °F 59.0 °F 84% 29.83 in 10.0 mi SW 3.5 mph - N/A   Clear
1:53 AM 62.1 °F 55.9 °F 80% 29.83 in 10.0 mi West 8.1 mph - N/A   Partly Cloudy
2:53 AM 62.1 °F 55.0 °F 78% 29.82 in 10.0 mi WNW 9.2 mph - N/A   Clear
3:53 AM 62.1 °F 55.0 °F 78% 29.86 in 10.0 mi West 6.9 mph - N/A   Mostly Cloudy
4:53 AM 59.0 °F 55.0 °F 87% 29.86 in 10.0 mi Calm Calm - N/A   Clear
5:53 AM 57.9 °F 54.0 °F 87% 29.90 in 10.0 mi West 6.9 mph - N/A   Clear
6:53 AM 60.1 °F 54.0 °F 80% 29.92 in 10.0 mi NW 6.9 mph - N/A   Clear
7:53 AM 64.0 °F 54.0 °F 70% 29.93 in 10.0 mi West 6.9 mph - N/A   Partly Cloudy
8:53 AM 69.1 °F 54.0 °F 58% 29.93 in 10.0 mi NW 9.2 mph - N/A   Clear
9:53 AM 71.1 °F 55.0 °F 57% 29.94 in 10.0 mi NNW 10.4 mph - N/A   Clear
10:53 AM 73.9 °F 53.1 °F 48% 29.93 in 10.0 mi NW 12.7 mph 18.4 mph N/A   Partly Cloudy
11:53 AM 75.0 °F 51.1 °F 43% 29.93 in 10.0 mi WNW 13.8 mph 24.2 mph N/A   Scattered Clouds
12:53 PM 78.1 °F 52.0 °F 40% 29.93 in 10.0 mi NNW 15.0 mph - N/A   Mostly Cloudy
1:53 PM 80.1 °F 51.1 °F 36% 29.92 in 10.0 mi NW 12.7 mph 26.5 mph N/A   Scattered Clouds
2:53 PM 81.0 °F 50.0 °F 34% 29.91 in 10.0 mi West 15.0 mph 21.9 mph N/A   Partly Cloudy
3:53 PM 82.9 °F 48.9 °F 31% 29.89 in 10.0 mi NW 20.7 mph 25.3 mph N/A   Partly Cloudy
4:53 PM 82.9 °F 46.0 °F 27% 29.89 in 10.0 mi West 13.8 mph - N/A   Partly Cloudy
5:53 PM 82.0 °F 46.0 °F 28% 29.89 in 10.0 mi WNW 16.1 mph 23.0 mph N/A   Clear
6:53 PM 81.0 °F 48.0 °F 31% 29.90 in 10.0 mi NW 15.0 mph 21.9 mph N/A   Clear
7:53 PM 77.0 °F 48.9 °F 37% 29.91 in 10.0 mi NNW 10.4 mph - N/A   Clear
8:53 PM 72.0 °F 50.0 °F 46% 29.92 in 10.0 mi NNW 6.9 mph - N/A   Clear
9:53 PM 68.0 °F 52.0 °F 56% 29.94 in 10.0 mi NNE 16.1 mph - N/A   Clear
10:03 PM 66.2 °F 51.8 °F 60% 29.99 in 10.0 mi NNE 15.0 mph - N/A   Clear
10:53 PM 64.0 °F 52.0 °F 65% 29.97 in 10.0 mi NNE 4.6 mph - N/A   Clear
11:53 PM 62.1 °F 52.0 °F 70% 29.98 in 10.0 mi NNW 4.6 mph - N/A   Clear